"Pseudo-MPEC" for P10IcVg

Created 2018 Jul 17 10:18:03 UT using Find_Orb

Click here for an explanation of pseudo-MPECs

 
 Astrometry: 
     P10IcVg  C2018 07 08pwAstrometry:fIh9?[cIU?RXnwVGTLj/G]d[N4XB[BCtbX7e3WhF51
     P10IcVg  C2018 07 08?i\=y]KLMZM177Fe%redacted;%-Z:*#seeil5Z1HkSg4i*4L/`TF51
     P10IcVg  C2018 07 08j3e[$eF]D-=_7tN]/bI1TyhF]Lm7OEr-1rkUYbnq7v._W29NEOCPF51

Station data:
(F51) Pan-STARRS 1, Haleakala  (N20.707235 W156.255910)  US/Hawaii.
   Observers N. Primak, A. Schultz, S. Watters, J. Thiel, T. Goggia. Measurer
   PS1 Science Consortium. 1.8-m Ritchey-Chrétien + CCD.

Orbital elements:  P10IcVg
   Perihelion 2018 Jun 21.348539 +/- 37.4 TT =  8:21:53 (JD 2458290.848539)
Epoch 2018 Jul  8.0 TT = JDT 2458307.5   Earth MOID: 0.0221   AutoNEOCP
M  12.94560 +/- 22                  (J2000 ecliptic)
n   0.77744579 +/- 0.381            Peri.  155.85369 +/- 60
a   1.17135706 +/- 0.383            Node   113.67260 +/- 36
e   0.1147385 +/- 0.252             Incl.    1.24708 +/- 3.7
P   1.27/463.05d           H 27.7   G  0.15   U 12.1  SR
q 1.03695725 +/- 0.251    Q 1.30575688 +/- 41.1
From 3 observations 2018 July 8 (50.5 min); mean residual 0".09
Residuals in arcseconds: 
180708 F51  .03+  .05-    180708 F51  .08-  .16+    180708 F51  .05+  .10-    

Ephemerides (geocentric):
Date (UTC) HH   RA              Dec         delta   r     elong  mag " sig PA
---- -- -- --  -------------   -----------  ------ ------ -----  --- ---- ---
2018 07 17 10  20 55 04.950   -18 27 42.01  .03235 1.0474 163.5 21.2  66d 171
2018 07 17 11  20 55 15.881   -18 28 39.19  .03238 1.0475 163.5 21.2  66d 171
2018 07 17 12  20 55 26.785   -18 29 36.22  .03242 1.0475 163.5 21.2  66d 171
2018 07 17 13  20 55 37.661   -18 30 33.10  .03246 1.0475 163.5 21.2  66d 171
2018 07 17 14  20 55 48.511   -18 31 29.83  .03249 1.0476 163.5 21.2  66d 171
2018 07 17 15  20 55 59.335   -18 32 26.40  .03253 1.0476 163.5 21.2  66d 171
2018 07 17 16  20 56 10.131   -18 33 22.82  .03257 1.0476 163.5 21.2  66d 171
2018 07 17 17  20 56 20.901   -18 34 19.09  .03260 1.0476 163.5 21.2  66d 171
2018 07 17 18  20 56 31.644   -18 35 15.21  .03264 1.0477 163.5 21.2  66d 171
2018 07 17 19  20 56 42.360   -18 36 11.17  .03268 1.0477 163.5 21.2  66d 171
2018 07 17 20  20 56 53.050   -18 37 06.99  .03272 1.0477 163.5 21.2  66d 171
2018 07 17 21  20 57 03.713   -18 38 02.65  .03275 1.0478 163.5 21.2  66d 171
2018 07 17 22  20 57 14.350   -18 38 58.17  .03279 1.0478 163.5 21.2  66d 171
2018 07 17 23  20 57 24.961   -18 39 53.53  .03283 1.0478 163.5 21.2  66d 171
2018 07 18 00  20 57 35.545   -18 40 48.75  .03286 1.0479 163.5 21.2  66d 171
2018 07 18 01  20 57 46.103   -18 41 43.82  .03290 1.0479 163.5 21.2  66d 171
2018 07 18 02  20 57 56.634   -18 42 38.73  .03294 1.0479 163.5 21.2  66d 171
2018 07 18 03  20 58 07.140   -18 43 33.50  .03297 1.0480 163.5 21.2  66d 171
2018 07 18 04  20 58 17.619   -18 44 28.12  .03301 1.0480 163.5 21.2  66d 171
2018 07 18 05  20 58 28.072   -18 45 22.60  .03305 1.0480 163.5 21.2  66d 171
2018 07 18 06  20 58 38.499   -18 46 16.92  .03309 1.0481 163.5 21.2  66d 171
2018 07 18 07  20 58 48.901   -18 47 11.10  .03312 1.0481 163.5 21.2  66d 171
2018 07 18 08  20 58 59.276   -18 48 05.14  .03316 1.0481 163.5 21.2  66d 171
2018 07 18 09  20 59 09.625   -18 48 59.02  .03320 1.0482 163.5 21.2  66d 171
2018 07 18 10  20 59 19.949   -18 49 52.76  .03324 1.0482 163.5 21.2  66d 171
2018 07 18 11  20 59 30.247   -18 50 46.36  .03327 1.0482 163.5 21.2  66d 171
2018 07 18 12  20 59 40.519   -18 51 39.81  .03331 1.0483 163.5 21.2  66d 171
2018 07 18 13  20 59 50.765   -18 52 33.11  .03335 1.0483 163.5 21.2  66d 171
2018 07 18 14  21 00 00.986   -18 53 26.27  .03339 1.0483 163.5 21.2  66d 171
2018 07 18 15  21 00 11.181   -18 54 19.29  .03342 1.0484 163.5 21.3  66d 171
2018 07 18 16  21 00 21.350   -18 55 12.16  .03346 1.0484 163.5 21.3  66d 171
2018 07 18 17  21 00 31.494   -18 56 04.89  .03350 1.0485 163.5 21.3  66d 171
2018 07 18 18  21 00 41.613   -18 56 57.47  .03354 1.0485 163.6 21.3  66d 171
2018 07 18 19  21 00 51.706   -18 57 49.92  .03358 1.0485 163.6 21.3  66d 171
2018 07 18 20  21 01 01.774   -18 58 42.22  .03361 1.0486 163.6 21.3  66d 171
2018 07 18 21  21 01 11.817   -18 59 34.38  .03365 1.0486 163.6 21.3  66d 171
2018 07 18 22  21 01 21.835   -19 00 26.39  .03369 1.0486 163.6 21.3  66d 171
2018 07 18 23  21 01 31.827   -19 01 18.27  .03373 1.0487 163.6 21.3  66d 171
2018 07 19 00  21 01 41.794   -19 02 10.00  .03377 1.0487 163.6 21.3  66d 171
2018 07 19 01  21 01 51.736   -19 03 01.60  .03380 1.0487 163.6 21.3  66d 171
2018 07 19 02  21 02 01.653   -19 03 53.05  .03384 1.0488 163.6 21.3  66d 171
2018 07 19 03  21 02 11.546   -19 04 44.36  .03388 1.0488 163.6 21.3  66d 171
2018 07 19 04  21 02 21.413   -19 05 35.54  .03392 1.0488 163.6 21.3  66d 171
2018 07 19 05  21 02 31.255   -19 06 26.57  .03396 1.0489 163.6 21.3  66d 171
2018 07 19 06  21 02 41.073   -19 07 17.47  .03400 1.0489 163.6 21.3  66d 171
2018 07 19 07  21 02 50.865   -19 08 08.22  .03404 1.0489 163.6 21.3  66d 171
2018 07 19 08  21 03 00.633   -19 08 58.84  .03407 1.0490 163.6 21.3  66d 171
2018 07 19 09  21 03 10.376   -19 09 49.32  .03411 1.0490 163.6 21.3  66d 171